Location: Mohawk View
(42.7837°N, 73.7885°W)
Time: 08:33:22
(UTC+00:00)

USA 238 DEB - Pass Details

Date: 17 June 2021
Orbit: 991 x 1221 km, 63.4° (Epoch: 16 July)

Event Time Altitude Azimuth Distance (km) Brightness Sun altitude
Rises 01:15:08 0° 218° (SW) 3,703 6.5 -6.6°
Reaches altitude 10° 01:17:41 10° 219° (SW) 2,771 5.9 -6.9°
Maximum altitude 01:24:12 80° 307° (NW) 1,053 3.8 -7.8°
Drops below altitude 10° 01:31:04 10° 35° (NE) 2,915 6.1 -8.7°
Sets 01:33:48 0° 36° (NE) 3,909 6.8 -9.1°
